Owensboro, KY

2:21 AM CDT on April 28, 2017 (GMT -0500)
Owensboro-Daviess County

Weather History for KOWB - October, 2012

Change the Weather History Date:

Wednesday, October 24, 2012

  Actual Average Record
Temperature  
Mean Temperature 70 °F -  
Max Temperature 82 °F 67 °F 84 °F (1947)
Min Temperature 59 °F 45 °F 17 °F (1981)
Cooling Degree Days 6    
Growing Degree Days 20 (Base 50)    
Moisture  
Dew Point 55 °F    
Average Humidity 63    
Maximum Humidity 78    
Minimum Humidity 42    
Precipitation  
Precipitation 0.00 in - - ()
Sea Level Pressure  
Sea Level Pressure 30.04 in    
Wind  
Wind Speed 8 mph (South)    
Max Wind Speed 16 mph    
Max Gust Speed 21 mph    
Visibility 10 miles    
Events      
Averages and records for this station are not official NWS values.
T = Trace of Precipitation, MM = Missing Value Source: NWS Daily Summary

Daily Weather History Graph

Daily Weather History Graph

Search for Another Location

Airport or City:

Trip Planner

Search our weather history database for the weather conditions in past years. The results will help you decide how hot, cold, wet, or windy it might be!

Date:

Astronomy

Oct. 24, 2012 Rise Set
Actual Time 7:06 AM CDT 5:58 PM CDT
Civil Twilight 6:39 AM CDT 6:25 PM CDT
Nautical Twilight 6:08 AM CDT 6:56 PM CDT
Astronomical Twilight 5:38 AM CDT 7:26 PM CDT
Moon 3:09 PM CDT (10/24) 2:06 AM CDT (10/24)
Length of Visible Light 11h 46m
Length of Day
10h 52m
Waxing Gibbous, 76% of the Moon is Illuminated
Oct 24
Waxing Gibbous
Oct 29
Full
Nov 6
Last Quarter
Nov 13
New
Nov 20
First Quarter

Hourly Weather History & Observations

Time (CDT) Temp. Heat Index Dew Point Humidity Pressure Visibility Wind Dir Wind Speed Gust Speed Precip Events Conditions
12:56 AM 61.9 °F - 52.0 °F 70% 30.04 in 10.0 mi South 8.1 mph - N/A   Clear
1:56 AM 61.0 °F - 52.9 °F 75% 30.05 in 10.0 mi South 5.8 mph - N/A   Clear
2:56 AM 59.9 °F - 52.0 °F 75% 30.05 in 10.0 mi South 5.8 mph - N/A   Clear
3:56 AM 59.9 °F - 52.9 °F 78% 30.05 in 10.0 mi South 6.9 mph - N/A   Clear
4:56 AM 59.9 °F - 52.9 °F 78% 30.06 in 10.0 mi South 5.8 mph - N/A   Partly Cloudy
5:56 AM 59.9 °F - 52.9 °F 78% 30.08 in 10.0 mi South 6.9 mph - N/A   Clear
7:56 AM 59.9 °F - 52.9 °F 78% 30.11 in 10.0 mi South 4.6 mph - N/A   Scattered Clouds
8:56 AM 66.9 °F - 54.9 °F 65% 30.11 in 10.0 mi South 9.2 mph - N/A   Partly Cloudy
9:56 AM 72.0 °F - 55.9 °F 57% 30.11 in 10.0 mi SSW 11.5 mph - N/A   Clear
10:56 AM 75.9 °F - 57.9 °F 54% 30.09 in 10.0 mi SSW 12.7 mph - N/A   Clear
11:56 AM 79.0 °F - 59.9 °F 52% 30.08 in 10.0 mi SSW 11.5 mph 17.3 mph N/A   Clear
12:56 PM 81.0 °F 81.6 °F 59.9 °F 49% 30.05 in 10.0 mi SSW 11.5 mph 18.4 mph N/A   Clear
1:56 PM 81.9 °F 82.1 °F 59.0 °F 46% 30.02 in 10.0 mi South 13.8 mph 20.7 mph N/A   Clear
2:56 PM 82.9 °F 82.6 °F 57.9 °F 42% 30.01 in 10.0 mi South 11.5 mph - N/A   Clear
3:56 PM 81.9 °F 81.6 °F 56.8 °F 42% 30.00 in 10.0 mi South 16.1 mph - N/A   Clear
4:56 PM 79.9 °F - 55.9 °F 44% 30.00 in 10.0 mi South 11.5 mph - N/A   Clear
5:56 PM 74.8 °F - 55.9 °F 52% 30.01 in 10.0 mi South 8.1 mph - N/A   Clear
6:56 PM 70.9 °F - 55.9 °F 59% 30.01 in 10.0 mi SSE 6.9 mph - N/A   Clear
7:56 PM 68.0 °F - 55.9 °F 65% 30.01 in 10.0 mi SSE 5.8 mph - N/A   Clear
8:56 PM 65.8 °F - 55.9 °F 70% 30.02 in 10.0 mi SSE 8.1 mph - N/A   Clear
9:56 PM 64.9 °F - 54.9 °F 70% 30.01 in 10.0 mi South 5.8 mph - N/A   Clear
10:56 PM 63.9 °F - 54.9 °F 72% 30.01 in 10.0 mi SSE 8.1 mph - N/A   Clear
11:56 PM 61.9 °F - 54.9 °F 78% 30.01 in 10.0 mi SSE 5.8 mph - N/A   Clear